Location: Arbocrest Acres
(39.2134°N, 84.4144°W)
Time: 06:28:28
(UTC+00:00)

X-37B - Visible Passes

Search period start: 02 December 2022 00:00
Search period end: 12 December 2022 00:00
Orbit: 277 x 277 km, 45.0° (Epoch: 01 November)

Date Brightness Start Highest point End Pass type
(mag) Time Alt. Az. Time Alt. Az. Time Alt. Az.
05 Dec 2.0 23:29:28 10° S 23:31:11 17° SE 23:31:11 17° SE visible
06 Dec 0.9 23:29:30 10° SW 23:31:46 33° SSE 23:32:02 32° SE visible
07 Dec -0.1 23:29:58 10° WSW 23:32:23 69° SSE 23:32:48 52° E visible
08 Dec 0.1 23:30:39 10° WSW 23:33:05 60° NNW 23:33:32 47° NNE visible
09 Dec 0.9 23:31:30 10° W 23:33:49 36° NNW 23:34:13 33° N visible
10 Dec 1.4 23:32:27 10° WNW 23:34:36 26° NNW 23:34:52 25° N visible
11 Dec 1.7 23:33:24 10° WNW 23:35:25 21° N 23:35:31 21° N visible
